Погода в Жемчужной

Россия / Мурманская область     66°55′21″N   32°12′33″E
В апреле 2022 года жителям России запретили посещать сайт meteo.paraplan.net по решению Генеральной прокуратуры. Аудитория сайта уменьшилась в 10 раз. Владельцы сайта не видят смысла в поддержке погодного сервера в таких условиях. Сайт будет закрыт в октябре.
темп.,
°C
ветер,
м/с
пор.,
м/с
влажн.,
%
обл.,
%
осадки,
мм/ч
давл.,
гПа
погр.,
м
29 сентября, чт
чт2900:00+6в468886 0.1 1020453
03:00+5всв358987 0.1 1020259
06:00+6в379085 0.0 1019456
09:00+5в478569 0.0 1019550
12:00+6вюв477242 0.0 1019777
15:00+7вюв476097 0.0 1018934
18:00+5вюв4860100 0.0 1017570
21:00+4в5864100 0.0 1016562
30 сентября, пт
пт3000:00+3всв4770100 0.0 1015340
03:00+2всв3773100 0.0 1014401
06:00+2всв4788100 0.1 1013443
09:00+2св3593100 0.5 1012386
12:00+2св2499100 1.1 1011211
15:00+2св2398100 1.6 1011298
18:00+2св239698 0.2 1010387
21:00+2в1296100 0.4 1010514
1 октября, сб
сб100:00+2ссв0197100 0.1 1010253
03:00+2зсз1195100 0.3 1009294
06:00+2зсз1298100 0.1 1009143
09:00+2з1296100 0.1 1009209
12:00+4з238291 0.1 1009694
15:00+4з347893 0.1 1009734
18:00+3зюз2585100 0.1 1009232
21:00+1з259197 0.1 1010123
2 октября, вс
вс200:00+1з239299 0.0 101073
03:00+1з129386 0.0 101140
06:000з11925 0.0 101125
09:00+1з118256 0.0 101269
12:00+5юз137133 0.0 1012383
15:00+6ю137791 0.0 1012363
18:00+4ююв1289100 0.0 101263
21:00+5ююз2396100 0.1 1012128
3 октября, пн
пн300:00+5ююз1197100 0.0 101245
03:00+5ююз119688 0.0 101328
06:00+2ю008397 0.1 101663
09:00+3юв1290100 0.6 1017128
12:00+4ююв2492100 0.8 1018234
15:00+5юв2296100 1.1 1018101
18:00+5юв1297100 0.3 101849
21:00+6ююз119894 0.5 101938